Home   Weather   Constantine   Past weeks

Flag for Algeria Past Weather in Constantine, Algeria — Yesterday and Last 2 Weeks

Now
97 °F

Sunny.


Feels Like: 93 °F
Forecast: 74 / 103 °F
Wind: 8 mph from North

Location: Constantine Airport

Current Time: Jul 28, 2017 at 2:16:17 pm

Latest Report: Jul 28, 2017 at 1:30 pm


Visibility: 10 mi

Pressure: 30.09 "Hg (28.29 "Hg at 557m altitude)

Humidity: 17%

Dew Point: 45 °F

Location of ConstantineLocation

Past Weather in Constantine — Graph

°F

Constantine Temperature Yesterday

Maximum temperature yesterday: 88 °F (at 2:30 pm)
Minimum temperature yesterday: 61 °F (at 4:00 am)
Average temperature yesterday: 75 °F

High & Low Weather Summary for the Past Weeks

 TemperatureHumidityPressure
High109 °F (Jul 23, 2:00 pm)94% (Jul 25, 5:00 am)30.18 "Hg (Jul 25, 5:00 am)
Low61 °F (Jul 17, 4:00 am)11% (Jul 13, 1:30 pm)29.89 "Hg (Jul 21, 2:30 am)
Average81 °F43%30.07 "Hg
* Reported Jul 13 1:00 pm — Jul 28 1:00 pm, Constantine. Weather by CustomWeather, © 2017

Note: Actual official high and low records may vary slightly from our data, if they occured in-between our weather recording intervals... More about our weather records

Advertising

Constantine Weather History for the Previous 24 Hours

Scroll right to see more
 ConditionsComfort  
Time TempWeatherWind HumidityBarometerVisibility
1:00 pm
Fri, Jul 28
95 °FSunny.9 mph20%30.12 "Hg10 mi
12:30 pm93 °FSunny.8 mph24%30.12 "Hg10 mi
12:00 pm91 °FSunny.7 mph24%30.12 "Hg10 mi
11:30 am91 °FSunny.6 mph26%30.12 "Hg10 mi
11:00 am90 °FSunny.2 mph27%30.12 "Hg10 mi
10:30 am88 °FSunny.5 mph31%30.12 "Hg10 mi
10:00 am84 °FSunny.2 mph33%30.12 "Hg10 mi
9:30 am82 °FPassing clouds.3 mph35%30.12 "HgN/A
9:00 am79 °FPassing clouds.3 mph39%30.12 "HgN/A
8:30 am79 °FSunny.2 mph37%30.12 "Hg10 mi
8:00 am75 °FSunny.2 mph41%30.12 "Hg10 mi
7:30 am72 °FPassing clouds.3 mph44%30.12 "HgN/A
7:00 am68 °FSunny.3 mph49%30.12 "Hg10 mi
6:30 am66 °FSunny.2 mph52%30.12 "Hg10 mi
6:00 am64 °FSunny.1 mph52%30.12 "Hg10 mi
5:30 am64 °FClear.No wind56%30.09 "Hg10 mi
5:00 am64 °FClear.No wind56%30.09 "Hg10 mi
4:30 am64 °FClear.2 mph52%30.09 "Hg10 mi
4:00 am64 °FClear.1 mph52%30.09 "Hg10 mi
3:30 am66 °FClear.1 mph52%30.09 "Hg10 mi
3:00 am66 °FClear.1 mph49%30.09 "Hg10 mi
2:30 am66 °FClear.No wind49%30.12 "Hg10 mi
2:00 am68 °FClear.3 mph46%30.12 "Hg10 mi
1:30 am68 °FClear.5 mph49%30.12 "Hg10 mi
1:00 am70 °FClear.7 mph46%30.12 "Hg10 mi
12:30 am70 °FClear.6 mph46%30.12 "Hg10 mi
12:00 am70 °FClear.6 mph43%30.12 "Hg10 mi
11:30 pm
Thu, Jul 27
70 °FClear.7 mph43%30.12 "Hg10 mi
11:00 pm72 °FPassing clouds.5 mph44%30.12 "HgN/A
10:30 pm73 °FClear.7 mph47%30.12 "Hg10 mi
10:00 pm73 °FClear.3 mph47%30.12 "Hg10 mi
9:30 pm73 °FClear.6 mph47%30.12 "Hg10 mi
9:00 pm75 °FClear.3 mph44%30.09 "Hg10 mi
8:30 pm77 °FClear.5 mph42%30.09 "Hg10 mi
8:00 pm79 °FClear.9 mph39%30.09 "Hg10 mi
7:30 pm81 °FSunny.8 mph42%30.09 "Hg10 mi
7:00 pm84 °FSunny.8 mph40%30.07 "Hg10 mi
6:30 pm84 °FPassing clouds.9 mph40%30.07 "HgN/A
6:00 pm86 °FPassing clouds.8 mph38%30.07 "HgN/A
5:30 pm86 °FPassing clouds.9 mph38%30.07 "HgN/A
5:00 pm88 °FPassing clouds.8 mph33%30.07 "HgN/A
4:30 pm88 °FPassing clouds.10 mph31%30.07 "HgN/A
4:00 pm88 °FPassing clouds.13 mph31%30.07 "HgN/A
3:30 pm88 °FPassing clouds.8 mph31%30.07 "HgN/A
3:00 pm88 °FPassing clouds.6 mph31%30.07 "HgN/A
2:30 pm88 °FPassing clouds.5 mph31%30.09 "HgN/A
Weather by CustomWeather, © 2017

See weather overviewHow to use our weather pages